Regional Weather Roundup
Issued by NWS Northern Indiana

Home | Current Version | Previous Version | Text Only | Print | Product List | Glossary On
Versions: 1 2 3 4 5 6 7 8 9 10 11 12 13 14 15 16 17 18 19 20 21 22 23 24 25 26 27 28 29 30 31 32 33 34 35 36 37 38 39 40 41 42 43 44 45 46 47 48 49 50
000
ASUS43 KIWX 302010
RWRIWX

KIWX WEATHER ROUNDUP
NATIONAL WEATHER SERVICE NORTHERN INDIANA
400 PM EDT WED JUL 30 2014

NOTE: "FAIR" INDICATES FEW OR NO CLOUDS BELOW 12,000 FEET WITH NO
SIGNIFICANT WEATHER AND/OR OBSTRUCTIONS TO VISIBILITY.

* THESE STATIONS ARE NOT UNDER NWS QUALITY CONTROL. THEY ALSO MAY NOT
  REPORT WEATHER SUCH AS PRECIPITATION OR FOG.

INZ001>027-302100-
NORTHERN INDIANA

CITY           SKY/WX    TMP DP  RH WIND       PRES   REMARKS
GARY*          MOSUNNY   73  63  68 NE9       30.03S
VALPARAISO     PTSUNNY   76  55  48 W7        30.02F
MICHIGAN CITY* SUNNY     72  55  56 N7        30.04S
LAPORTE*       SUNNY     76  52  43 NW9G17    30.03F
KNOX*          CLOUDY    75  56  52 NW6       30.01F
SOUTH BEND     SUNNY     77  56  48 W14       30.03S
GOSHEN         MOSUNNY   77  57  50 W13       30.02S
MONTICELLO*    MOSUNNY   77  61  58 W7        30.02F
LOGANSPORT*    MOSUNNY   77  57  50 W10       30.03F
ROCHESTER*     MOSUNNY   79  55  44 NW7       30.03F
WARSAW*        PTSUNNY   77  59  53 W12       30.02F
ANGOLA*        PTSUNNY   75  57  53 VRB6      30.00F
FORT WAYNE     MOSUNNY   77  57  50 NW7       30.02F
HUNTINGTON*    MOSUNNY   77  58  51 W13G21    30.01F
PERU/GRISSOM   MOSUNNY   78  61  55 W14       30.02F
MARION*        SUNNY     75  58  53 W12       30.03F

$$
INZ028>050-302100-
CENTRAL INDIANA

CITY           SKY/WX    TMP DP  RH WIND       PRES   REMARKS
LAFAYETTE      MOSUNNY   78  60  53 W8        30.02F
KOKOMO*        MOSUNNY   79  61  53 W9        30.03F
MUNCIE*        MOSUNNY   78  58  49 NW14      30.03F
INDIANAPOLIS   PTSUNNY   76  58  53 W12       30.04F

$$
MIZ043>046-050>051-056>058-064>065-071>073-077>080-302100-
SOUTHWEST LOWER MICHIGAN

CITY           SKY/WX    TMP DP  RH WIND       PRES   REMARKS
BATTLE CREEK   PTSUNNY   76  57  51 W13       30.00F
BENTON HARBOR  MOSUNNY   65  57  75 VRB7      30.04F
COLDWATER*     MOSUNNY   77  58  50 W10G16    30.00S
HILLSDALE*     MOSUNNY   76  56  50 W8G18     29.99F
HOLLAND        PTSUNNY   65  59  81 W10       30.04S
GRAND RAPIDS   LGT RAIN  69  60  73 W7        30.00S
KALAMAZOO      MOSUNNY   76  56  49 W12       30.01S
STURGIS*       MOSUNNY   75  55  50 W12G17    30.01S
THREE RIVERS*  PTSUNNY   77  58  52 W13G21    30.01F

$$
OHZ001>008-015>018-024>025-302100-
NORTHWEST OHIO

CITY           SKY/WX    TMP DP  RH WIND       PRES   REMARKS
WAUSEON*       FAIR      79  55  44 W14G21    29.98F
DEFIANCE       SUNNY     77  56  48 W12       29.99F
FINDLAY        MOSUNNY   78  57  48 W17       29.99F
TOLEDO EXPRESS PTSUNNY   76  56  49 NW8       29.97F
TOLEDO METCALF MOSUNNY   76  58  53 NW9       29.99S
LIMA           MOSUNNY   75  57  53 NW13      30.01F

$$
&&



USA.gov is the U.S. government's official web portal to all federal, state and local government web resources and services.